Regional Weather Roundup
Issued by NWS San Diego, CA

Home | Current Version | Previous Version | Text Only | Print | Product List | Glossary On
Versions: 1 2 3 4 5 6 7 8 9 10 11 12 13 14 15 16 17 18 19 20 21 22 23 24 25 26 27 28 29 30 31 32 33 34 35 36 37 38 39 40 41 42 43 44 45 46 47 48 49 50
000
ASUS46 KSGX 291911
RWRSGX

SAN DIEGO HOURLY WEATHER ROUNDUP
NATIONAL WEATHER SERVICE SAN DIEGO CA
1200 PM PDT FRI MAY 29 2015

NOTE: "FAIR" INDICATES FEW OR NO CLOUDS BELOW 12,000 FEET WITH NO
SIGNIFICANT WEATHER AND/OR OBSTRUCTIONS TO VISIBILITY.

CAZ042-043-060-061-PZZ750-775-292000-

GREATER SAN DIEGO AREA

CITY           SKY/WX    TMP DP  RH WIND       PRES   REMARKS
LINDBERGH FLD  MOSUNNY   69  57  65 W9G16     29.96F
POINT LOMA       N/A     69  56  64 W12         N/A
NATIONAL CITY    N/A     68  60  74 SW3       29.95F
CHULA VISTA      N/A     68  61  77 W5        29.88F
IMPERIAL BEACH MOSUNNY   66  57  72 W12       29.96S
BROWN FIELD    SUNNY     70  58  65 VRB6      29.94F
MIRAMAR MCAS   MOSUNNY   75  55  49 VRB5      29.94F
MONTGOMERY FLD SUNNY     72  58  61 W9        29.94F

$$

NORTH SAN DIEGO COUNTY

CITY           SKY/WX    TMP DP  RH WIND       PRES   REMARKS
CAMP PENDLETON MOSUNNY   74  58  57 SW8       29.93F
OCEANSIDE AP   SUNNY     70  58  65 SW10      29.93F
OCEANSIDE HBR    N/A     64  60  85 W10       29.97F
VISTA            N/A     71  61  72 W3        29.92F
CARLSBAD       SUNNY     67  58  72 SW10      29.94F
DEL MAR          N/A     67  60  79 W3        29.97F
LA JOLLA SCRIP   N/A    N/A N/A N/A W3        29.93F
FALLBROOK        N/A     75  62  63 SE3       29.93F
ESCONDIDO        N/A     79  63  58 W7        29.94F
SAN MARCOS       N/A     72  60  66 W3        29.92F
POWAY            N/A     78  61  55 CALM      29.94F

$$

EAST SAN DIEGO COUNTY

CITY           SKY/WX    TMP DP  RH WIND       PRES   REMARKS
RAMONA         SUNNY     80  55  42 NW10      29.94F
SANTEE LAKES     N/A     77  61  56 SW5       29.92F
LA MESA          N/A     71  59  64 CALM      29.88F
JAMUL            N/A     76  62  61 CALM      29.92F
DESCANSO N       N/A     83  51  32 W2        29.81F
MT. LAGUNA OBS   N/A     70  30  22 NE1       29.74S
CAMPO            N/A     88  37  16 SW10      29.93F

$$

ORANGE COUNTY AND THE LOS ANGELES BASIN

CITY           SKY/WX    TMP DP  RH WIND       PRES   REMARKS
JOHN WAYNE AP  PTSUNNY   72  56  57 S9        29.94F
LAKE FOREST FR   N/A     74  55  50 SW6       29.85F
SANTA ANA        N/A     76  62  62 CALM      29.90S
HUNTINGTON BCH   N/A     69  61  75 W6        29.97S
LOS ALAMITOS   PTSUNNY   71  59  64 SW7       29.95S
FULLERTON      SUNNY     75  55  49 CALM      29.94S
LONG BEACH     SUNNY     69  57  65 SW8       29.95F
L.A. AP        MOSUNNY   67  58  72 SW10      29.96S
L.A. DOWNTOWN  SUNNY     74  57  55 CALM      29.94F HAZE

$$

THE INLAND EMPIRE

CITY           SKY/WX    TMP DP  RH WIND       PRES   REMARKS
CORONA         SUNNY     78  57  48 CALM      29.93F
CHINO          MOSUNNY   79  55  43 CALM      29.94F HAZE
ONTARIO        PTSUNNY   78  55  44 W5        29.94F HAZE
SAN BERNARDINO SUNNY     81  46  30 W3        29.94F HAZE
RIVERSIDE AP   SUNNY     78  56  46 W6        29.93F HAZE
RIV CYN CREST    N/A     76  65  68 W2          N/A
MORENO VALLEY    N/A     85  60  43 W2        29.92F
MARCH ARB      SUNNY     83  52  33 NW8       29.94F
HORSETHIEF CYN   N/A     80  55  41 NW7       29.89F
PERRIS           N/A     85  54  34 W5          N/A
MENIFEE          N/A     84  56  38 SE2       30.00F
HEMET EAST       N/A     81  44  26 CALM      29.93F
FRENCH VALLEY  FAIR      81  55  41 S7        29.94F
TEMECULA         N/A     80  60  51 W1        29.88F

$$

SAN BERNARDINO AND RIVERSIDE COUNTY MOUNTAINS

CITY           SKY/WX    TMP DP  RH WIND       PRES   REMARKS
BIG BEAR AP    SUNNY     70  25  18 NE8G18    30.23F
ANGELUS OAKS     N/A     78  47  33 CALM      29.82F
PINE COVE        N/A     73  41  31 W3        29.89F

$$

SOUTHERN DESERT INCLUDING THE COACHELLA VALLEY

CITY           SKY/WX    TMP DP  RH WIND       PRES   REMARKS
PALM SPRINGS   SUNNY     92  45  19 SE7       29.90F
THOUSAND PALMS   N/A     91  47  21 CALM      29.87F
PALM DESERT      N/A     93  49  22 E1          N/A
THERMAL        SUNNY     92  38  15 SE10G18   29.85F
BLYTHE         SUNNY     94  33  11 S6        29.88F
IMPERIAL AP    SUNNY     91  51  25 VRB5      29.85F
EL CENTRO NAS  MOSUNNY   92  50  23 VRB6      29.87F
YUMA AZ        MOSUNNY   93  36  13 VRB6      29.88F
MEXICALI       SUNNY     91  46  21 E6        29.87

$$

UPPER DESERT

CITY           SKY/WX    TMP DP  RH WIND       PRES   REMARKS
VICTORVILLE AP SUNNY     86  28  12 CALM      29.99F
HESPERIA         N/A     89  33  14 CALM      29.97F
APPLE VALLEY     N/A     91  28  10 NE1       30.01F
PALMDALE       SUNNY     88  26  10 W6        29.97F
LANCASTER      SUNNY     87  31  13 CALM      29.96F
EDWARDS AFB    PTSUNNY   88  34  14 VRB3      29.94F
DAGGETT        SUNNY     91  26   9 NE5       29.93F
29 PALMS N     MOSUNNY   91  30  11 SE7G16    30.01F
NEEDLES        SUNNY    100  16   5 S9        29.89F

$$

REGIONAL REPORTS

CITY           SKY/WX    TMP DP  RH WIND       PRES   REMARKS
SANTA BARBARA  PTSUNNY   62  55  77 S8        29.98R
SANDBERG       SUNNY     88  25  10 VRB6      30.10S
LAS VEGAS NV   MOSUNNY   92  28  10 S9        29.93F
PHOENIX AZ     MOSUNNY   97  31   9 VRB6      29.91F
TIJUANA        SUNNY     70  54  56 W7        29.97F
ENSENADA NW      N/A     63  32  31 W2        29.94F

$$

OFFSHORE ISLANDS

CITY           SKY/WX    TMP DP  RH WIND       PRES   REMARKS
CATALINA ARPT  SUNNY     66  55  67 W6        29.99R
SAN CLEMENTE I CLOUDY    64  54  69 SW7       29.99S
SAN NICOLAS IS PTSUNNY   63  48  58 NW9       29.97S

$$

MARINE AND OFFSHORE BUOY REPORTS

STATION/POSITION SKY/WX   TEMP    WIND        PRES    SWELL
                          AIR SEA DIR/SP/G            HT/PER/DIR
                          (F)     (DEG/KT/KT) (MB)    (FT/S/D)
TANNER BANKS               58 60  320/ 14/ 16 1015.3S   5/320/ 8
S CLEMENTE BASIN           60 64  310/  2/  4 1014.8F   5/220/15
SAN NICOLAS IS.               60                N/A     5/260/13
SO. S. ROSA ISLA           55 60  340/ 14/ 17 1015.0S   5/12
W. S. BARBARA CH           54 56  320/ 16/ 17 1015.2R   3/290/13
M. S. BARBARA CH           57 59  180/  2/  4 1016.0R
S. MONICA BASIN            61 63  140/  2/  4 1015.2R   3/180/14
S PEDRO CHANNEL               63                N/A     2/190/13
DANA POINT                    66                N/A     2/200/17
OCEANSIDE OFFSHR              66                N/A     3/210/15
TORREY PINES OTR              65                N/A     3/230/14
LA JOLLA 1                 64 65  310/  4/  5 1014.4F
MISSION BAY BUOY              65                N/A     3/230/15
SAN DIEGO BAY                 65              1014.7F
POINT LOMA SOUTH              65                N/A     3/210/17

$$




USA.gov is the U.S. government's official web portal to all federal, state and local government web resources and services.